This is the latest recevied weather packets stored in our database for station/object LRBC. If no packets are shown the sender has not sent any weather packets the latest 10 day(s).
| Time | Temp. | Humidity | Pressure | Rain* | Wind** | Luminosity | Snow |
|---|---|---|---|---|---|---|---|
| 1777696427 | 7.22° C | 87% | 1023 hPa | - | - | - | - |
| 1777695528 | 6.11° C | 87% | 1023 hPa | - | - | - | - |
| 1777694627 | 6.11° C | 87% | 1023 hPa | - | - | - | - |
| 1777693809 | 6.11° C | 87% | 1023 hPa | - | - | - | - |
| 1777692827 | 6.11° C | 87% | 1023 hPa | - | - | - | - |
| 1777691927 | 6.11° C | 87% | 1023 hPa | - | - | - | - |
| 1777691027 | 6.11° C | 87% | 1023 hPa | - | - | - | - |
| 1777690127 | 6.11° C | 87% | 1023 hPa | - | - | - | - |
| 1777689227 | 6.11° C | 87% | 1023 hPa | - | - | - | - |
| 1777688328 | 5° C | 93% | 1023 hPa | - | - | - | - |
| 1777671228 | 7.78° C | 62% | 1024 hPa | - | - | - | - |
| 1777669428 | 7.78° C | 57% | 1024 hPa | - | - | - | - |
| 1777665827 | 8.89° C | 46% | 1024 hPa | - | - | - | - |
| 1777664049 | 8.89° C | 50% | 1024 hPa | - | - | - | - |
| 1777663124 | 8.89° C | 46% | 1024 hPa | - | - | - | - |
| 1777660456 | 8.89° C | 50% | 1024 hPa | - | - | - | - |
| 1777659528 | 10° C | 47% | 1024 hPa | - | - | - | - |
| 1777653227 | 11.11° C | 35% | 1023 hPa | - | - | - | - |
| 1777652327 | 12.22° C | 33% | 1024 hPa | - | - | - | - |
| 1777651428 | 12.22° C | 33% | 1024 hPa | - | - | - | - |
| 1777649627 | 12.22° C | 33% | 1024 hPa | - | - | - | - |
| 1777648728 | 12.22° C | 35% | 1024 hPa | - | - | - | - |
| 1777647827 | 12.22° C | 35% | 1024 hPa | - | - | - | - |
| 1777646965 | 12.22° C | 30% | 1024 hPa | - | - | - | - |
| 1777646109 | 12.22° C | 30% | 1024 hPa | - | - | - | - |
* Rain since midnight (hover to see other rain measurements)
** Current wind speed in m/s (hover to see current wind gust speed)